Weather History for Meridian NAS, MS

Change the Weather History Date:

Monday, December 2, 2013

  Actual Average Record
Temperature  
Mean Temperature 59 °F -  
Max Temperature 70 °F 60 °F 77 °F (1998)
Min Temperature 48 °F 39 °F 27 °F (2011)
Degree Days  
Heating Degree Days 6    
Growing Degree Days 9 (Base 50)    
Moisture  
Dew Point 51 °F    
Average Humidity 79    
Maximum Humidity 97    
Minimum Humidity 51    
Precipitation  
Precipitation 0.01 in - - ()
Sea Level Pressure  
Sea Level Pressure 29.88 in    
Wind  
Wind Speed 4 mph (South)    
Max Wind Speed 9 mph    
Max Gust Speed -    
Visibility 9 miles    
Events Rain    
Averages and records for this station are not official NWS values.
T = Trace of Precipitation, MM = Missing Value Source: NWS Daily Summary

Daily Weather History Graph

Daily Weather History Graph

Search for Another Location

Airport:

Trip Planner

Search our weather history database for the weather conditions in past years. The results will help you decide how hot, cold, wet, or windy it might be!

Date:

Astronomy

Dec. 02, 2013 Rise Set
Actual Time 6:39 AM CST 4:48 PM CST
Civil Twilight 6:12 AM CST 5:15 PM CST
Nautical Twilight 5:41 AM CST 5:45 PM CST
Astronomical Twilight 5:12 AM CST 6:15 PM CST
Moon 6:06 AM CST (12/2) 4:49 PM CST (12/2)
Length of Visible Light 11h 02m
Length of Day
10h 09m
Waning Crescent, 0% of the Moon is Illuminated
Dec 2
Waning Crescent
Dec 2
New
Dec 9
First Quarter
Dec 17
Full
Dec 25
Last Quarter

Hourly Weather History & Observations

Time (CST) Temp. Dew Point Humidity Pressure Visibility Wind Dir Wind Speed Gust Speed Precip Events Conditions
12:56 AM 54.0 °F 46.0 °F 75% 30.02 in 10.0 mi South 4.6 mph - N/A   Overcast
1:56 AM 52.0 °F 46.0 °F 80% 29.99 in 10.0 mi ESE 4.6 mph - N/A   Overcast
2:56 AM 52.0 °F 46.0 °F 80% 29.97 in 10.0 mi Calm Calm - N/A   Mostly Cloudy
3:56 AM 52.0 °F 46.9 °F 83% 29.96 in 10.0 mi SSW 4.6 mph - 0.00 in Rain Light Rain
4:56 AM 52.0 °F 48.9 °F 89% 29.95 in 10.0 mi Calm Calm - 0.01 in   Overcast
5:56 AM 52.0 °F 48.9 °F 89% 29.95 in 10.0 mi SSW 3.5 mph - N/A   Overcast
6:01 AM 52.0 °F 48.9 °F 89% 29.92 in 9.0 mi South 3.5 mph - N/A   Overcast
6:51 AM 48.2 °F 46.4 °F 93% 29.91 in 1.8 mi Calm Calm - N/A   Mostly Cloudy
6:56 AM 48.9 °F 48.0 °F 97% 29.94 in 2.0 mi SE 3.5 mph - N/A   Mostly Cloudy
7:18 AM 51.1 °F 48.0 °F 89% 29.90 in 6.0 mi South 4.6 mph - N/A   Overcast
7:56 AM 54.0 °F 48.9 °F 83% 29.94 in 9.0 mi South 3.5 mph - N/A   Partly Cloudy
8:56 AM 55.9 °F 50.0 °F 80% 29.93 in 10.0 mi South 3.5 mph - N/A   Overcast
9:56 AM 59.0 °F 50.0 °F 72% 29.92 in 10.0 mi SSW 4.6 mph - 0.00 in   Overcast
10:56 AM 63.0 °F 50.0 °F 63% 29.90 in 10.0 mi Variable 3.5 mph - N/A   Overcast
11:56 AM 66.0 °F 48.9 °F 54% 29.86 in 10.0 mi South 9.2 mph - N/A   Mostly Cloudy
12:56 PM 69.1 °F 50.0 °F 51% 29.82 in 10.0 mi SW 9.2 mph - N/A   Mostly Cloudy
1:56 PM 70.0 °F 52.0 °F 53% 29.80 in 10.0 mi SSW 9.2 mph - N/A   Mostly Cloudy
2:56 PM 70.0 °F 54.0 °F 57% 29.79 in 10.0 mi South 6.9 mph - N/A   Mostly Cloudy
3:56 PM 66.9 °F 53.1 °F 61% 29.78 in 10.0 mi SSW 4.6 mph - N/A   Mostly Cloudy
4:56 PM 63.0 °F 55.0 °F 75% 29.78 in 10.0 mi SE 3.5 mph - N/A   Scattered Clouds
5:56 PM 61.0 °F 55.0 °F 81% 29.80 in 10.0 mi SE 3.5 mph - N/A   Scattered Clouds
6:56 PM 60.1 °F 54.0 °F 80% 29.79 in 10.0 mi SSE 3.5 mph - N/A   Mostly Cloudy
7:56 PM 57.0 °F 54.0 °F 89% 29.81 in 10.0 mi Calm Calm - N/A   Mostly Cloudy
8:56 PM 55.9 °F 53.1 °F 90% 29.82 in 10.0 mi Calm Calm - N/A   Scattered Clouds
9:56 PM 57.0 °F 54.0 °F 89% 29.82 in 10.0 mi SE 3.5 mph - N/A   Scattered Clouds
10:56 PM 55.9 °F 54.0 °F 93% 29.82 in 8.0 mi Calm Calm - N/A   Mostly Cloudy
11:56 PM 57.0 °F 55.0 °F 93% 29.81 in 9.0 mi Calm Calm - N/A   Overcast